JP3QZN-13 Weather Reports


time (UTC)temp
C
wind
direction
speed
KPH
gust
KPH
rain 1hr
cm
rain 24hr
cm
rain mn
cm
humidity
%
barometer
mb
20260505060008 28 315 3.2 0.0 0.00 0.00 0.00 27 1020.6
20260505053007 28 315 14.5 0.0 0.00 0.00 0.00 27 1020.9
20260505040025 28 337 0.0 0.0 0.00 0.00 0.00 29 1022.2
20260505033024 27 315 14.5 0.0 0.00 0.00 0.00 31 1022.9
20260505030024 27 315 12.9 0.0 0.00 0.00 0.00 33 1023.3
20260505023023 26 315 16.1 0.0 0.00 0.00 0.00 35 1024.0
20260505020022 25 315 4.8 0.0 0.00 0.00 0.00 36 1024.7
20260505013022 24 0 3.2 0.0 0.00 0.00 0.00 36 1025.3
20260505010021 22 0 0.0 0.0 0.00 0.00 0.00 37 1026.1
20260505003020 21 112 0.0 0.0 0.00 0.00 0.00 40 1026.3
20260505000019 20 112 0.0 0.0 0.00 0.00 0.00 45 1026.7
20260504233018 18 135 3.2 0.0 0.00 0.00 0.00 51 1027.2
20260504230018 16 90 0.0 0.0 0.00 0.00 0.00 54 1027.2
20260504223016 15 157 0.0 0.0 0.00 0.00 0.00 60 1027.2
20260504220015 13 112 0.0 0.0 0.00 0.00 0.00 66 1027.0
20260504213015 12 135 0.0 0.0 0.00 0.00 0.00 67 1026.8
20260504210014 11 157 0.0 0.0 0.00 0.00 0.00 66 1025.9
20260504203013 11 135 0.0 0.0 0.00 0.00 0.00 65 1025.2
20260504200013 12 135 0.0 0.0 0.00 0.00 0.00 64 1024.4
20260504193012 12 90 0.0 0.0 0.00 0.00 0.00 64 1023.7
20260504190011 12 45 0.0 0.0 0.00 0.00 0.00 63 1023.4
20260504183010 12 337 3.2 0.0 0.00 0.00 0.00 62 1022.8
20260504173008 13 0 4.8 0.0 0.00 0.00 0.00 60 1022.0